089  
ASUS41 KBOX 252010  
RWRBOX  
 
REGIONAL WEATHER ROUNDUP  
NATIONAL WEATHER SERVICE BOSTON/NORTON MA  
400 PM EDT WED APR 25 2018  
 
NOTE: "FAIR" INDICATES FEW OR NO CLOUDS BELOW 12,000 FEET WITH NO  
SIGNIFICANT WEATHER AND/OR S TO VISIBILITY
.  
 
MAZALL-252100-  
EASTERN MASSACHUSETTS  
 
CITY SKY/WX TMP DP RH WIND PRES REMARKS
 
BOSTON LGT RAIN 50 50 100 MISG 29.87F FOG  
BEVERLY LGT RAIN 50 49 96 SE14G23 29.88F FOG  
LAWRENCE LGT RAIN 55 51 86 E9G18 29.89F  
BEDFORD LGT RAIN 54 52 93 E10 29.85F FOG  
BLUE HILL N/A 54 54 100 SE18G31 29.83F  
NORWOOD LGT RAIN 59 56 89 SE9 29.84F  
MARSHFIELD CLOUDY 52 52 100 SE9G16 29.87F  
PLYMOUTH RAIN 57 55 93 SE13G24 29.85F FOG  
TAUNTON RAIN 56 54 93 SE15G21 29.82 FOG  
NEW BEDFORD HVY RAIN 55 54 96 E14 29.82F FOG  

 
 
MAZALL-252100-  
CAPE COD AND THE ISLANDS  
 
CITY SKY/WX TMP DP RH WIND PRES REMARKS
 
FALMOUTH LGT RAIN 52 52 100 SE20G32 29.86 VSB 1  
HYANNIS RAIN 52 52 100 SE14G22 29.85F FOG  
CHATHAM LGT RAIN 51 51 100 SE14G23 29.90F FOG  
PROVINCETOWN LGT RAIN 53 52 96 SE16G23 29.90F FOG  
NANTUCKET LGT RAIN 51 51 100 SE23G32 29.86F FOG  
MARTHAS VNYRD HVY RAIN 52 52 100 SE21G33 29.82F FOG  

 
 
MAZALL-252100-  
CENTRAL AND WESTERN MASSACHUSETTS  
 
CITY SKY/WX TMP DP RH WIND PRES REMARKS
 
WORCESTER LGT RAIN 54 53 97 E8 29.83F VSB 1/2  
FITCHBURG LGT RAIN 59 57 93 E7 29.85F FOG  
ORANGE LGT RAIN 57 56 96 CALM 29.82F  
SPRINGFIELD LGT RAIN 58 56 95 CALM 29.77 FOG  
WESTFIELD LGT RAIN 58 58 100 CALM 29.78F VSB 1  
NORTH ADAMS CLOUDY 59 51 75 E13 29.78F  
PITTSFIELD LGT RAIN 57 52 83 SE8 29.76F  

 
 
RIZALL-252100-  
RHODE ISLAND  
 
CITY SKY/WX TMP DP RH WIND PRES REMARKS
 
PROVIDENCE HVY RAIN 56 56 100 S6 29.81F VSB 1  
NEWPORT RAIN 51 51 100 SE16G28 29.79F FOG  
BLOCK ISLAND LGT RAIN 50 50 100 SE15G24 29.79F FOG  
SMITHFIELD HVY RAIN 55 54 96 MISG 29.81F FOG  
WESTERLY LGT RAIN 53 53 100 SE14 29.80F FOG  

 
 
CTZALL-252100-  
CONNECTICUT  
 
CITY SKY/WX TMP DP RH WIND PRES REMARKS
 
BRADLEY INTL LGT RAIN 58 57 97 E7 29.78F FOG  
HARTFORD CLOUDY 59 57 93 SE3 29.76F FOG  
BRIDGEPORT FOG 51 50 96 NE14 29.74F VSB 1/2  
DANBURY CLOUDY 57 56 96 E8 29.74F FOG  
GROTON CLOUDY 51 51 100 E18G28 29.77F FOG  
NEW HAVEN CLOUDY 55 53 93 E12 29.74F FOG  
CHESTER LGT RAIN 54 54 100 SE12 29.77F VSB 1/4  
MERIDEN CLOUDY 57 55 93 S8 29.76F FOG  
WILLIMANTIC LGT RAIN 58 56 93 VRB6 29.79F FOG  
OXFORD LGT RAIN 56 55 97 E8 29.76F VSB 1  

 
 
MEZ002-015-021-024-NHZ003-005-008-011-012-014-VTZ005-008-252100-  
NORTHERN NEW ENGLAND  
 
CITY SKY/WX TMP DP RH WIND PRES REMARKS
 
PORTLAND ME LGT RAIN 47 47 100 E9 29.99F FOG  
BANGOR ME LGT RAIN 55 51 86 SE9 30.05F  
CONCORD NH LGT RAIN 54 51 90 E12 29.88F FOG  
MANCHESTER NH LGT RAIN 57 53 86 E12 29.86F FOG  
NASHUA NH LGT RAIN 55 55 100 E10 29.87F FOG  
PORTSMOUTH NH RAIN 49 48 99 E14 29.90F VSB 1  
JAFFREY NH LGT RAIN 55 55 100 VRB5 29.84F FOG  
KEENE NH LGT RAIN 58 54 86 VRB3 29.82F  
BURLINGTON VT LGT RAIN 55 52 89 SE5 29.83F FOG  
MT. WASHINGTON LGT RAIN 34 34 100 SE45G56 N/A VSB 1/16WCI 18  

 
 
NYZ052-076-252100-  
EASTERN NEW YORK  
 
CITY SKY/WX TMP DP RH WIND PRES REMARKS
 
ALBANY CLOUDY 56 53 90 N6 29.77F FOG  
NEW YORK CITY DRZL/FOG 59 57 93 E8 29.71F VSB 1  

 
 
ANZALL-252100-  
MARINE OBSERVATIONS  
 
STATION/POSITION TIME TEMP WIND PRES VSBY WAVE
 
AIR SEA DIR/SP/G HT/PER  
(UTC) (F) (DEG/KT/KT) (MB) (MI) (FT/S)  
BOSTON BUOY 1950 48 45 110/ 16/ 19 1011.9F 3/ 5  
BUZZARDS BAY 1900 50 120/ 25/ 26 1010.4F  
NANTUCKET SOUND 1950 50 45 120/ 21/ 25 1010.9F 3/ 4  
MASS BAY-STELLWA 1904 46 44 1012.1F 3/ 5  
ISLE OF SHOALS 2000 47 110/ 20/ 21 1012.0F  
S OF BLOCK IS 1943 44 N/A 9/ 8  

 
   
.....................KEY......................
 
 
SKY/WX - SKY CONDITION/PRESENT WEATHER  
TMP - TEMPERATURE IN FAHRENHEIT  
DWPT - DEWPOINT IN FAHRENHEIT  
RH - RELATIVE HUMIDITY IN PERCENT  
WIND - DIRECTION AND SPEED IN MPH  
PRES - MEAN SEA LEVEL PRESSURE IN INCHES OF HG  
WCI - WIND CHILL INDEX  
VSB - VISIBILITY IN MILES  
HX - HEAT INDEX  
TC - TEMPERATURE IN CELSIUS  
VRB - VARIABLE WIND DIRECTION  
N/A - NOT AVAILABLE  
 
 
CLICK HERE TO GO TO PREVIOUS BULLETINS.

The Nexlab MA Page
The Nexlab RI Page
The Nexlab NH Page
The Nexlab CT Page Main Text Page